一网星座-0386星 (ONEWEB-0386 )

导读

ONEWEB-0386是英国OneWeb星座旗下的低轨宽带通信卫星,于2021年10月14日发射升空。它运行于约1200公里高度的低地球轨道,属于OneWeb全球卫星互联网星座组网卫星,旨在为全球偏远地区提供高速宽带接入服务,补充地面网络覆盖短板,助力全球泛在互联,是OneWeb实现全球宽带通信服务布局的重要组成单元。

基本信息
目录编号:
49312
目录名称:
ONEWEB-0386
国际标识:
2021-090AK
轨道中心:
EARTH
卫星名称:
一网星座-0386星
卫星全名:
一网星座-0386星 (ONEWEB-0386 )
卫星状态:
在轨 (已飞行1704 天)
发射日期:
2021-10-14 UTC
国别 :
英国 (GB)
星等 :
--
轨道信息
数据来源 国际轨道数据 AOE轨道数据
星历时间 2026-06-14T03:44:06+0800
16小时前
查看轨道信息
2026-06-14T04:00:00+0800
15小时前
查看轨道信息
半长轴 7559.914km 7559.901km
偏心率 0.0001965 0.0002283
轨道倾角 87.920° 87.922°
近地点辐角 92.847° 57.563°
升交点赤经 275.101° 275.096°
平近点角 267.289° 355.057°
近地点 1180.291km 1180.038km
远地点 1183.263km 1183.49km
周期 109.027分钟 109.027分钟
每日圈数 13.207711 13.207745
详细信息
平衡模式:
三轴稳定
覆盖范围:
全球
运营商:
一网卫星公司
运营商所在国:
英国
制造商(研发单位):
一网卫星公司
制造商所在国:
英国
使用方式:
暂无
卫星简介
OneWeb卫星网络由648颗重约125公斤的微型卫星组成,运行在1200公里的轨道上。 每颗卫星都能够提供至少每秒8千兆位的吞吐量,以使用其高吞吐量的Ku频段有效载荷为家庭和移动平台提供互联网接入。该卫星仍在工作。
2D轨道图
3D轨道图
轨道高度分析图
轨道倾角分析图
轨道综合分析图
查看轨道综合分析图